Regional Weather Roundup
Issued by NWS Charleston, WV

Home | Current Version | Previous Version | Text Only | Print | Product List | Glossary Off
Versions: 1 2 3 4 5 6 7 8 9 10 11 12 13 14 15 16 17 18 19 20 21 22 23 24 25 26 27 28 29 30 31 32 33 34 35 36 37 38 39 40 41 42 43 44 45 46 47 48

000
ASUS41 KRLX 191310
RWRRLX
West Virginia Regional Weather Roundup
National Weather Service Charleston WV
800 AM EST SUN NOV 19 2017

Note: "fair" indicates few or no clouds below 12,000 feet with no
significant weather and/or obstructions to visibility.

WVZ003-191400-
Northern Panhandle of West Virginia

CITY           SKY/WX    TMP DP  RH WIND       PRES   REMARKS
WHEELING       CLOUDY    36  28  73 W12G21    29.76R
$$

WVZ009-191400-
Northwest West Virginia

CITY           SKY/WX    TMP DP  RH WIND       PRES   REMARKS
PARKERSBURG    CLOUDY    40  33  76 W12       29.86R
$$

WVZ006-191400-
Western West Virginia

CITY           SKY/WX    TMP DP  RH WIND       PRES   REMARKS
HUNTINGTON     CLOUDY    41  31  67 W10G18    29.91R
$$

WVZ015-191400-
West Central West Virginia

CITY           SKY/WX    TMP DP  RH WIND       PRES   REMARKS
CHARLESTON     CLOUDY    39  34  82 W9        29.88R
$$

WVZ022-031-191400-
North Central West Virginia

CITY           SKY/WX    TMP DP  RH WIND       PRES   REMARKS
CLARKSBURG     CLOUDY    39  31  72 W10       29.79R
MORGANTOWN     CLOUDY    37  32  82 NW10      29.78R
$$

WVZ025-035-042-045-191400-
Southern West Virginia

CITY           SKY/WX    TMP DP  RH WIND       PRES   REMARKS
BECKLEY        MIX PCPN  35  32  88 NW13G20   29.81R
LOGAN          CLOUDY    37  34  87 W8G17     29.88R
BLUEFIELD      LGT SNOW  32  30  92 W13G25    29.82R FOG
LEWISBURG      CLOUDY    37  32  84 W6        29.79R
$$

WVZ047-191400-
Northern Mountains of West Virginia

CITY           SKY/WX    TMP DP  RH WIND       PRES   REMARKS
ELKINS         CLOUDY    35  32  88 W14       29.78R
$$

WVZ052-191400-
Eastern Panhandle of West Virginia

CITY           SKY/WX    TMP DP  RH WIND       PRES   REMARKS
MARTINSBURG    MOCLDY    44  30  57 W20G29    29.65R
PETERSBURG     CLOUDY    42  29  58 NW25G44   29.72R
$$




USA.gov is the U.S. government's official web portal to all federal, state and local government web resources and services.